Stündliche Wetter Czymanowo

Heute, 31 Oktober, Samstag

Zeit Temperatur Niederschläge Wind Luftdruck Luftfeuchtigkeit
00:00 +8°C° 0 mm 1 m/S 762 mmHg 90%
01:00 +8°C° 0 mm 1 m/S 763 mmHg 90%
02:00 +7°C° 0 mm 1 m/S 763 mmHg 91%
03:00 +7°C° 0 mm 1 m/S 763 mmHg 91%
04:00 +7°C° 0 mm 1 m/S 764 mmHg 92%
05:00 +7°C° 0 mm 1 m/S 764 mmHg 92%
06:00 +7°C° 0 mm 1 m/S 764 mmHg 92%
07:00 +7°C° 0 mm 1 m/S 765 mmHg 92%
08:00 +8°C° 0 mm 1 m/S 765 mmHg 87%
09:00 +10°C° 0 mm 1 m/S 765 mmHg 82%
10:00 +11°C° 0 mm 1 m/S 766 mmHg 77%
11:00 +12°C° 0 mm 1 m/S 766 mmHg 73%
12:00 +12°C° 0 mm 1 m/S 766 mmHg 70%
13:00 +13°C° 0 mm 1 m/S 766 mmHg 66%
14:00 +12°C° 0 mm 2 m/S 766 mmHg 71%
15:00 +10°C° 0 mm 2 m/S 766 mmHg 75%
16:00 +9°C° 0 mm 3 m/S 765 mmHg 80%
17:00 +9°C° 0 mm 3 m/S 765 mmHg 82%
18:00 +8°C° 0 mm 3 m/S 765 mmHg 85%
19:00 +7°C° 0 mm 4 m/S 765 mmHg 87%
20:00 +6°C° 0 mm 4 m/S 765 mmHg 87%
21:00 +6°C° 0 mm 4 m/S 765 mmHg 87%
22:00 +6°C° 0 mm 5 m/S 765 mmHg 87%
23:00 +6°C° 0 mm 5 m/S 765 mmHg 87%

Morgen, 1 November, Sonntag

Zeit Temperatur Niederschläge Wind Luftdruck Luftfeuchtigkeit
00:00 +6°C° 0 mm 5 m/S 765 mmHg 87%
01:00 +6°C° 0 mm 5 m/S 765 mmHg 87%
02:00 +5°C° 0 mm 6 m/S 764 mmHg 86%
03:00 +5°C° 0 mm 6 m/S 763 mmHg 85%
04:00 +5°C° 0 mm 6 m/S 763 mmHg 84%
05:00 +5°C° 0 mm 7 m/S 762 mmHg 82%
06:00 +5°C° 0 mm 7 m/S 762 mmHg 80%
07:00 +5°C° 0 mm 7 m/S 762 mmHg 78%
08:00 +6°C° 0 mm 7 m/S 762 mmHg 74%
09:00 +8°C° 0 mm 7 m/S 761 mmHg 71%
10:00 +9°C° 0 mm 7 m/S 761 mmHg 68%
11:00 +9°C° 0 mm 7 m/S 760 mmHg 67%
12:00 +10°C° 0 mm 7 m/S 760 mmHg 67%
13:00 +11°C° 0 mm 7 m/S 759 mmHg 66%
14:00 +10°C° 0 mm 6 m/S 759 mmHg 69%
15:00 +10°C° 0 mm 6 m/S 758 mmHg 72%
16:00 +9°C° 0 mm 6 m/S 758 mmHg 75%
17:00 +9°C° 0.8 mm 6 m/S 757 mmHg 79%
18:00 +9°C° 0.8 mm 6 m/S 757 mmHg 84%
19:00 +10°C° 0.8 mm 6 m/S 756 mmHg 88%
20:00 +10°C° 0.6 mm 6 m/S 756 mmHg 90%
21:00 +10°C° 0.6 mm 5 m/S 756 mmHg 91%
22:00 +10°C° 0.6 mm 5 m/S 755 mmHg 93%
23:00 +10°C° 0.3 mm 5 m/S 755 mmHg 93%

übermorgen, 2 November, Montag

Zeit Temperatur Niederschläge Wind Luftdruck Luftfeuchtigkeit
00:00 +10°C° 0.3 mm 5 m/S 755 mmHg 93%
01:00 +10°C° 0.3 mm 5 m/S 754 mmHg 93%
02:00 +11°C° 0.3 mm 6 m/S 754 mmHg 93%
03:00 +11°C° 0.3 mm 6 m/S 754 mmHg 92%
04:00 +11°C° 0.3 mm 6 m/S 754 mmHg 92%
05:00 +11°C° 0 mm 6 m/S 754 mmHg 92%
06:00 +12°C° 0 mm 5 m/S 755 mmHg 91%
07:00 +10°C° 0 mm 5 m/S 755 mmHg 91%
08:00 +12°C° 0 mm 5 m/S 755 mmHg 87%
09:00 +12°C° 0 mm 5 m/S 756 mmHg 83%
10:00 +12°C° 0 mm 5 m/S 756 mmHg 79%
11:00 +12°C° 0 mm 4 m/S 756 mmHg 77%
12:00 +13°C° 0 mm 4 m/S 756 mmHg 75%
13:00 +13°C° 0 mm 4 m/S 756 mmHg 72%
14:00 +13°C° 0 mm 4 m/S 756 mmHg 78%
15:00 +13°C° 0 mm 4 m/S 756 mmHg 83%
16:00 +12°C° 0 mm 5 m/S 756 mmHg 89%
17:00 +13°C° 0 mm 5 m/S 756 mmHg 90%
18:00 +14°C° 0 mm 5 m/S 756 mmHg 91%
19:00 +14°C° 0 mm 6 m/S 756 mmHg 92%
20:00 +15°C° 0.1 mm 6 m/S 756 mmHg 92%
21:00 +15°C° 0.1 mm 6 m/S 756 mmHg 92%
22:00 +15°C° 0.1 mm 6 m/S 756 mmHg 92%
23:00 +15°C° 0 mm 6 m/S 756 mmHg 91%

3 November, Dienstag

Zeit Temperatur Niederschläge Wind Luftdruck Luftfeuchtigkeit
00:00 +15°C° 0 mm 6 m/S 756 mmHg 90%
01:00 +15°C° 0 mm 6 m/S 756 mmHg 89%
02:00 +15°C° 0.1 mm 6 m/S 757 mmHg 89%
03:00 +15°C° 0.1 mm 6 m/S 757 mmHg 89%
04:00 +15°C° 0.1 mm 6 m/S 757 mmHg 89%
05:00 +14°C° 0 mm 6 m/S 758 mmHg 87%
06:00 +13°C° 0 mm 6 m/S 759 mmHg 86%
07:00 +12°C° 0 mm 5 m/S 759 mmHg 84%
08:00 +11°C° 0 mm 6 m/S 760 mmHg 78%
09:00 +12°C° 0 mm 7 m/S 760 mmHg 73%
10:00 +12°C° 0 mm 8 m/S 761 mmHg 67%
11:00 +12°C° 0 mm 8 m/S 761 mmHg 64%
12:00 +12°C° 0 mm 8 m/S 762 mmHg 62%
13:00 +11°C° 0 mm 9 m/S 762 mmHg 59%
14:00 +11°C° 0 mm 8 m/S 762 mmHg 61%
15:00 +10°C° 0 mm 8 m/S 763 mmHg 63%
16:00 +10°C° 0 mm 7 m/S 763 mmHg 65%
17:00 +9°C° 0 mm 7 m/S 763 mmHg 67%
18:00 +9°C° 0 mm 7 m/S 764 mmHg 68%
19:00 +9°C° 0 mm 7 m/S 764 mmHg 70%
20:00 +8°C° 0 mm 7 m/S 764 mmHg 69%
21:00 +8°C° 0 mm 7 m/S 764 mmHg 68%
22:00 +8°C° 0 mm 7 m/S 764 mmHg 67%
23:00 +6°C° 0 mm 7 m/S 765 mmHg 68%

4 November, Mittwoch

Zeit Temperatur Niederschläge Wind Luftdruck Luftfeuchtigkeit
00:00 +6°C° 0 mm 7 m/S 765 mmHg 68%
01:00 +6°C° 0 mm 7 m/S 765 mmHg 69%
02:00 +5°C° 0 mm 7 m/S 765 mmHg 71%
03:00 +5°C° 0 mm 7 m/S 765 mmHg 74%
04:00 +5°C° 0 mm 7 m/S 765 mmHg 76%
05:00 +4°C° 0 mm 7 m/S 766 mmHg 79%
06:00 +4°C° 0 mm 7 m/S 766 mmHg 81%
07:00 +4°C° 0 mm 7 m/S 766 mmHg 83%
08:00 +5°C° 0 mm 7 m/S 767 mmHg 78%
09:00 +5°C° 0 mm 7 m/S 767 mmHg 73%
10:00 +6°C° 0 mm 7 m/S 767 mmHg 68%
11:00 +8°C° 0 mm 7 m/S 767 mmHg 67%
12:00 +8°C° 0 mm 7 m/S 768 mmHg 65%
13:00 +9°C° 0 mm 7 m/S 768 mmHg 64%
14:00 +8°C° 0 mm 7 m/S 768 mmHg 65%
15:00 +8°C° 0 mm 7 m/S 768 mmHg 67%
16:00 +7°C° 0 mm 6 m/S 769 mmHg 68%
17:00 +7°C° 0 mm 6 m/S 769 mmHg 73%
18:00 +5°C° 0 mm 6 m/S 770 mmHg 78%
19:00 +6°C° 0 mm 5 m/S 770 mmHg 82%
20:00 +6°C° 0 mm 5 m/S 770 mmHg 85%
21:00 +5°C° 0 mm 5 m/S 771 mmHg 87%
22:00 +5°C° 0 mm 5 m/S 771 mmHg 89%
23:00 +5°C° 0 mm 5 m/S 771 mmHg 90%

5 November, Donnerstag

Zeit Temperatur Niederschläge Wind Luftdruck Luftfeuchtigkeit
00:00 +5°C° 0 mm 5 m/S 771 mmHg 92%
01:00 +5°C° 0 mm 5 m/S 772 mmHg 93%
02:00 +5°C° 0 mm 5 m/S 772 mmHg 93%
03:00 +5°C° 0 mm 5 m/S 772 mmHg 94%
04:00 +5°C° 0 mm 5 m/S 772 mmHg 94%
05:00 +4°C° 0 mm 6 m/S 772 mmHg 94%
06:00 +4°C° 0 mm 6 m/S 772 mmHg 95%
07:00 +4°C° 0 mm 6 m/S 772 mmHg 95%
08:00 +5°C° 0 mm 6 m/S 772 mmHg 92%
09:00 +5°C° 0 mm 6 m/S 773 mmHg 90%
10:00 +7°C° 0 mm 6 m/S 773 mmHg 87%
11:00 +8°C° 0 mm 7 m/S 773 mmHg 80%
12:00 +9°C° 0 mm 7 m/S 773 mmHg 73%
13:00 +10°C° 0 mm 7 m/S 773 mmHg 67%
14:00 +9°C° 0.1 mm 7 m/S 773 mmHg 69%
15:00 +9°C° 0.1 mm 7 m/S 773 mmHg 72%
16:00 +8°C° 0.1 mm 7 m/S 773 mmHg 75%
17:00 +8°C° 0.1 mm 7 m/S 773 mmHg 76%
18:00 +8°C° 0.1 mm 7 m/S 773 mmHg 77%
19:00 +8°C° 0.1 mm 7 m/S 773 mmHg 79%
20:00 +8°C° 0 mm 7 m/S 773 mmHg 79%
21:00 +8°C° 0 mm 6 m/S 773 mmHg 79%
22:00 +8°C° 0 mm 6 m/S 773 mmHg 80%
23:00 +8°C° 0 mm 6 m/S 773 mmHg 82%
Mehr zeigen

Wir brauchen deine Erlaubnis

Meteoprog und unser Service Anbieter werden persönliche Daten aufbewahren, so wie Cookies, Geräte Bezeichnung oder ähnliche Technologien von deinem Gerät und Prozess, so wie Persönliche Daten Inhalte und Werbungen, genauso wie social Media und den Verkehr zu analysieren.

  • Aufbewahrung und/oder Zugang zu deiner Geräte Informationen.

    Cookies, Geräte Bezeichnung oder andere Informationen, können aufbewahrt oder Zugang zu deinem Gerät erhalten, für den Grund, der oben angegeben wird.

  • Personalisierte Werbung und Inhalte, Messungen, Einblick in das Publikum und Produkt Entwicklung.

    Werbungen und Inhalte können personalisiert werden, basierend auf ein Profil. Mehr Daten können besser personalisierte Werbungen und Inhalte hinzufügen. Werbung und Inhalte können gezeigt und gemessen werden. Einblicke über das Publikum, welche die Werbung gesehen haben und den Inhalt, können abgeleitet werden. So wie Daten können genutzt werden, um es zu verbessern oder die Benutzer Erfahrung zu verbessern das System und die Software.

Wenn du “Ich stimme zu” klickst, erlaubst du uns, die Cookies zu benutzen die Geräte Bezeichnung, den Web oder ähnliche Technologien zu benutzen. Deine Settings, können in deinem Gerät bei deinem Browser geändert werden.

Für den bestimmten Zweck, berechtigten Interessen beruhen darauf, mehr als auf den Inhalt. Du kannst mehr darüber in unseren Privaten und Cookie Politik lesen.